TimeEDT,TemperatureF,Dew PointF,Humidity,Sea Level PressureIn,VisibilityMPH,Wind Direction,Wind SpeedMPH,Gust SpeedMPH,PrecipitationIn,Events,Conditions,WindDirDegrees,DateUTC
12:15 AM,63.1,53.6,71,30.20,10.0,NE,4.6,-,N/A,,Clear,40,2013-08-24 04:15:00
12:35 AM,62.1,53.6,74,30.20,10.0,NNE,4.6,-,N/A,,Clear,30,2013-08-24 04:35:00
12:55 AM,61.3,53.6,76,30.22,10.0,NE,5.8,-,N/A,,Clear,40,2013-08-24 04:55:00
1:15 AM,59.9,53.1,78,30.22,10.0,NE,5.8,-,N/A,,Clear,40,2013-08-24 05:15:00
1:35 AM,60.8,53.6,77,30.22,10.0,Calm,Calm,-,N/A,,Clear,0,2013-08-24 05:35:00
1:55 AM,60.3,53.8,79,30.22,10.0,Calm,Calm,-,N/A,,Clear,0,2013-08-24 05:55:00
2:15 AM,59.9,53.6,80,30.23,10.0,NNE,3.5,-,N/A,,Clear,20,2013-08-24 06:15:00
2:35 AM,59.4,53.1,80,30.23,10.0,NNE,4.6,-,N/A,,Clear,30,2013-08-24 06:35:00
2:55 AM,57.9,52.9,83,30.23,10.0,NE,4.6,-,N/A,,Clear,50,2013-08-24 06:55:00
3:15 AM,58.5,52.9,82,30.24,10.0,NNE,4.6,-,N/A,,Clear,30,2013-08-24 07:15:00
3:35 AM,57.4,52.9,85,30.24,10.0,Calm,Calm,-,N/A,,Clear,0,2013-08-24 07:35:00
3:55 AM,57.2,53.4,87,30.25,10.0,Calm,Calm,-,N/A,,Clear,0,2013-08-24 07:55:00
4:15 AM,58.1,53.2,84,30.25,10.0,Calm,Calm,-,N/A,,Clear,0,2013-08-24 08:15:00
4:35 AM,57.7,52.7,83,30.25,10.0,North,3.5,-,N/A,,Clear,10,2013-08-24 08:35:00
4:55 AM,56.3,53.1,89,30.25,10.0,North,3.5,-,N/A,,Clear,10,2013-08-24 08:55:00
5:15 AM,55.6,52.9,91,30.26,10.0,Calm,Calm,-,N/A,,Clear,0,2013-08-24 09:15:00
5:35 AM,54.1,52.9,95,30.27,10.0,Calm,Calm,-,N/A,,Clear,0,2013-08-24 09:35:00
5:53 AM,53.6,51.8,94,30.27,10.0,Calm,Calm,-,N/A,,Clear,0,2013-08-24 09:53:00
7:53 AM,57.2,55.4,94,30.31,10.0,Calm,Calm,-,N/A,,Clear,0,2013-08-24 11:53:00
8:53 AM,60.8,55.4,82,30.33,10.0,Calm,Calm,-,N/A,,Clear,0,2013-08-24 12:53:00
9:53 AM,62.6,55.4,77,30.35,10.0,Variable,5.8,-,N/A,,Clear,0,2013-08-24 13:53:00
10:53 AM,68.0,55.4,64,30.36,10.0,Variable,3.5,-,N/A,,Clear,0,2013-08-24 14:53:00
11:53 AM,71.6,55.4,57,30.34,10.0,Variable,4.6,-,N/A,,Scattered Clouds,0,2013-08-24 15:53:00
12:53 PM,75.2,50.0,41,30.34,10.0,Calm,Calm,-,N/A,,Scattered Clouds,0,2013-08-24 16:53:00
1:53 PM,75.2,48.2,38,30.31,10.0,Variable,3.5,-,N/A,,Scattered Clouds,0,2013-08-24 17:53:00
2:53 PM,77.0,46.4,34,30.31,10.0,Variable,4.6,-,N/A,,Partly Cloudy,0,2013-08-24 18:53:00
3:53 PM,78.8,44.6,30,30.31,10.0,Variable,4.6,-,N/A,,Partly Cloudy,0,2013-08-24 19:53:00
5:53 PM,78.8,44.6,30,30.31,10.0,Calm,Calm,-,N/A,,Partly Cloudy,0,2013-08-24 21:53:00
6:53 PM,77.0,48.2,36,30.31,10.0,Calm,Calm,-,N/A,,Scattered Clouds,0,2013-08-24 22:53:00
7:53 PM,71.6,51.8,50,30.02,10.0,SE,3.5,-,N/A,,Partly Cloudy,140,2013-08-24 23:53:00
8:53 PM,68.0,51.8,56,30.34,10.0,Calm,Calm,-,N/A,,Clear,0,2013-08-25 00:53:00
9:15 PM,67.5,51.8,57,30.34,10.0,Calm,Calm,-,N/A,,Clear,0,2013-08-25 01:15:00
9:35 PM,66.9,51.8,58,30.34,10.0,Calm,Calm,-,N/A,,Scattered Clouds,0,2013-08-25 01:35:00
9:55 PM,66.2,51.8,60,30.35,10.0,North,3.5,-,N/A,,Scattered Clouds,10,2013-08-25 01:55:00
10:15 PM,67.6,51.6,56,30.36,10.0,NE,3.5,-,N/A,,Scattered Clouds,40,2013-08-25 02:15:00
10:35 PM,66.2,51.8,60,30.35,10.0,NE,3.5,-,N/A,,Scattered Clouds,50,2013-08-25 02:35:00
10:55 PM,63.3,52.3,67,30.37,10.0,NNW,3.5,-,N/A,,Clear,340,2013-08-25 02:55:00
11:15 PM,62.1,52.7,71,30.37,10.0,Calm,Calm,-,N/A,,Scattered Clouds,0,2013-08-25 03:15:00
11:35 PM,62.1,52.3,70,30.36,10.0,Calm,Calm,-,N/A,,Scattered Clouds,0,2013-08-25 03:35:00
11:55 PM,59.0,53.4,82,30.36,10.0,Calm,Calm,-,N/A,,Scattered Clouds,0,2013-08-25 03:55:00